TimeEST,TemperatureF,Dew PointF,Humidity,Sea Level PressureIn,VisibilityMPH,Wind Direction,Wind SpeedMPH,Gust SpeedMPH,PrecipitationIn,Events,Conditions,WindDirDegrees,DateUTC
12:54 AM,54.0,50.0,86,29.74,10.0,SSE,5.8,-,N/A,,Overcast,160,2013-01-14 05:54:00
1:54 AM,55.0,50.0,83,29.77,10.0,SW,11.5,-,N/A,,Overcast,220,2013-01-14 06:54:00
2:04 AM,53.6,48.2,82,29.83,10.0,West,33.4,50.6,0.00,Rain,Light Rain,260,2013-01-14 07:04:00
2:14 AM,50.0,46.4,87,29.85,9.0,West,18.4,34.5,0.00,Rain,Light Rain,270,2013-01-14 07:14:00
2:54 AM,44.1,42.1,93,29.91,10.0,WNW,21.9,32.2,0.00,,Light Drizzle,290,2013-01-14 07:54:00
3:54 AM,43.0,39.0,86,29.95,10.0,West,13.8,21.9,0.00,,Overcast,260,2013-01-14 08:54:00
4:54 AM,42.8,37.4,81,29.99,10.0,West,16.1,23.0,N/A,,Overcast,270,2013-01-14 09:54:00
5:54 AM,41.0,35.1,79,30.04,10.0,West,16.1,23.0,N/A,,Overcast,270,2013-01-14 10:54:00
6:54 AM,39.9,34.0,79,30.10,10.0,West,15.0,21.9,N/A,,Overcast,260,2013-01-14 11:54:00
7:54 AM,37.9,28.0,68,30.16,10.0,West,15.0,27.6,N/A,,Overcast,280,2013-01-14 12:54:00
8:54 AM,37.0,27.0,67,30.21,10.0,West,15.0,-,N/A,,Overcast,280,2013-01-14 13:54:00
9:54 AM,35.1,24.1,64,30.25,10.0,West,12.7,24.2,N/A,,Overcast,280,2013-01-14 14:54:00
10:46 AM,33.8,23.0,65,30.28,10.0,West,17.3,-,N/A,,Overcast,270,2013-01-14 15:46:00
10:54 AM,34.0,23.0,64,30.29,10.0,West,15.0,24.2,N/A,,Overcast,260,2013-01-14 15:54:00
11:44 AM,33.8,21.2,60,30.28,10.0,West,13.8,21.9,N/A,,Overcast,270,2013-01-14 16:44:00
11:54 AM,33.1,21.9,64,30.30,10.0,West,12.7,19.6,N/A,,Overcast,280,2013-01-14 16:54:00
12:20 PM,33.8,23.0,65,30.28,10.0,West,10.4,-,N/A,,Overcast,280,2013-01-14 17:20:00
12:54 PM,34.0,21.9,61,30.28,10.0,West,9.2,-,N/A,,Overcast,260,2013-01-14 17:54:00
1:54 PM,33.1,21.9,64,30.31,10.0,West,13.8,-,N/A,,Overcast,280,2013-01-14 18:54:00
2:54 PM,33.1,21.0,61,30.31,10.0,WNW,8.1,-,N/A,,Overcast,290,2013-01-14 19:54:00
3:54 PM,32.0,21.9,66,30.32,10.0,NW,9.2,-,N/A,,Overcast,310,2013-01-14 20:54:00
4:54 PM,32.0,21.9,66,30.35,10.0,NW,6.9,-,N/A,,Overcast,320,2013-01-14 21:54:00
5:54 PM,30.9,21.0,67,30.38,10.0,West,10.4,-,N/A,,Overcast,280,2013-01-14 22:54:00
6:54 PM,30.9,21.0,67,30.38,10.0,West,8.1,-,N/A,,Overcast,280,2013-01-14 23:54:00
7:54 PM,30.0,19.9,66,30.35,10.0,West,8.1,-,N/A,,Mostly Cloudy,280,2013-01-15 00:54:00
8:54 PM,30.0,19.0,64,30.38,10.0,West,8.1,-,N/A,,Mostly Cloudy,270,2013-01-15 01:54:00
9:54 PM,30.0,18.0,61,30.39,10.0,West,11.5,-,N/A,,Mostly Cloudy,260,2013-01-15 02:54:00
10:54 PM,30.0,18.0,61,30.38,10.0,West,8.1,-,N/A,,Mostly Cloudy,260,2013-01-15 03:54:00
11:54 PM,28.0,18.0,66,30.35,10.0,West,5.8,-,N/A,,Mostly Cloudy,280,2013-01-15 04:54:00